Regional Weather Roundup
Issued by NWS

Home | Current Version | Previous Version | Graphics & Text | Print | Product List | Glossary Off
Versions: 1 2 3 4 5 6 7 8 9 10 11 12 13 14 15 16 17 18 19 20 21 22 23 24 25 26 27 28 29 30 31 32 33 34 35 36 37 38 39 40 41 42 43 44 45 46 47 48 49 50

000
ASUS43 KMKX 040511
RWRWI

WISCONSIN REGIONAL WEATHER ROUNDUP
NATIONAL WEATHER SERVICE MILWAUKEE/SULLIVAN WI
1200 AM CDT WED MAY 04 2016

NOTE: "FAIR" INDICATES FEW OR NO CLOUDS BELOW 12,000 FEET WITH NO
SIGNIFICANT WEATHER AND/OR OBSTRUCTIONS TO VISIBILITY.

WIZ001-002-006>008-014>016-023>028-040600-
NORTHWEST WISCONSIN

CITY           SKY/WX    TMP DP  RH WIND       PRES   REMARKS
SUPERIOR ARPT  CLEAR     48  32  54 NE5       29.87R
ASHLAND        CLEAR     44  36  73 NE10      29.86R
HAYWARD        CLEAR     48  31  51 N14       29.84R
SIREN          CLEAR     52  32  46 NE13G20   29.85R
CUMBERLAND     CLEAR     50  32  50 N17G25    29.81R
RICE LAKE      CLEAR     50  33  52 N7        29.82R
CHETEK         CLEAR     52  35  52 NE10G16   29.80R
LADYSMITH      CLEAR     48  36  61 N15G22    29.81R
EAU CLAIRE     CLEAR     48  45  89 N6        29.77R
MENOMONIE      CLEAR     48  43  81 N5        29.78R
NEW RICHMOND   PTCLDY    54  31  41 N10       29.81R
OSCEOLA        PTCLDY    55  32  41 NE9       29.84R
$$

WIZ003>005-009-010-017-018-040600-
NORTH CENTRAL WISCONSIN

CITY           SKY/WX    TMP DP  RH WIND       PRES   REMARKS
MANITOWISH WTR RAIN      42  38  87 N10G23    29.80R
ARBOR VITAE    LGT RAIN  45  39  80 NE17G25   29.78R
WOODRUFF       LGT RAIN  45  39  80 NE17G25   29.78R
RHINELANDER    CLEAR     42  38  85 N6        29.75R
EAGLE RIVER    MIX PCPN  41  37  86 N14G23    29.77R
LAND O LAKES   CLOUDY    41  38  87 N10       29.79R
PHILLIPS       CLEAR     44  35  73 NW3       29.77R
TOMAHAWK       PTCLDY    40  39  97 N3        29.76R
MEDFORD        CLEAR     42  40  92 N6        29.74R
MERRILL        FOG       36  36 100 CALM      29.74R VSB 1/2
$$

WIZ029-030-035-036-043>047-040600-
CENTRAL WISCONSIN

CITY           SKY/WX    TMP DP  RH WIND       PRES   REMARKS
WAUSAU         CLEAR     45  43  93 N6        29.71R
MOSINEE        CLEAR     43  43 100 N6        29.73R
MARSHFIELD     CLEAR     46  43  89 N5        29.72R
STEVENS POINT  CLEAR     41  41 100 NW6       29.72R
WAUPACA        CLEAR     46  44  92 CALM      29.71R
WAUTOMA        CLOUDY    47  45  93 CALM      29.70R
WISC RAPIDS    FOG       43  41  93 N6        29.73R VSB 1/4
CAMP DOUGLAS   FOG       43  43 100 NW3       29.71R VSB 1/4
$$

WIZ011>013-019>022-031-037>040-048>050-040600-
NORTHEAST WISCONSIN

CITY           SKY/WX    TMP DP  RH WIND       PRES   REMARKS
ANTIGO         CLEAR     40  39  95 N9        29.72S WCI  34
SHAWANO        CLOUDY    46  43  88 N6        29.71R
OCONTO         PTCLDY    46  46 100 N6        29.70R
STURGEON BAY   CLOUDY    46  39  76 N10       29.72R
GREEN BAY      LGT RAIN  47  44  90 N8        29.69R
MANITOWOC      CLOUDY    48  47  96 N3        29.68S
APPLETON       PTCLDY    45  43  93 NW7       29.67S
CLINTONVILLE   CLEAR     45  43  93 NW3       29.70R
OSHKOSH        CLOUDY    48  46  93 NW5       29.68S
$$

WIZ032>034-041-042-053>061-040600-
SOUTHWEST WISCONSIN

CITY           SKY/WX    TMP DP  RH WIND       PRES   REMARKS
LA CROSSE      CLEAR     50  46  86 N6        29.72R
SPARTA         FOG       42  42 100 CALM      29.73R VSB 3/4
VIROQUA        PTCLDY    46  46 100 NE5       29.70S
BOSCOBEL       CLOUDY    48  47  96 E3        29.70S FOG
PRAIRIE DU CHI CLOUDY    49  47  93 CALM      29.69R
PLATTEVILLE    CLOUDY    50  47  92 S3        29.68F
$$

WIZ056-057-062-063-064-067-068-040600-
SOUTH CENTRAL WISCONSIN

CITY           SKY/WX    TMP DP  RH WIND       PRES   REMARKS
REEDSBURG      MOCLDY    46  46 100 NW5       29.68F
BARABOO/DELLS  MOCLDY    47  45  93 N6        29.68S
LONE ROCK      CLOUDY    50  48  93 CALM      29.69R
MINERAL POINT  CLOUDY    48  46  93 W3        29.68R
MADISON        CLOUDY    48  46  93 W3        29.65F
MIDDLETON      CLOUDY    50  46  88 CALM      29.66S
WATERTOWN      CLOUDY    48  48 100 CALM      29.66F
MONROE         HVY RAIN  48  46  93 N7        29.70F
JANESVILLE     RAIN      50  48  93 N10       29.69R
$$

WIZ051-052-058>065-066-070>072-040600-
SOUTHEAST WISCONSIN

CITY           SKY/WX    TMP DP  RH WIND       PRES   REMARKS
MILWAUKEE      LGT RAIN  52  47  83 N15       29.66R
WAUKESHA       RAIN      46  45  93 N6        29.68S
MILWAUKEE/TIMM LGT RAIN  50  43  76 N10       29.67S
RACINE         RAIN      58  43  57 W13G21    29.65S
BURLINGTON     LGT RAIN  50  45  81 N14G23    29.68R
KENOSHA        CLOUDY    59  42  53 SW13      29.62F
FOND DU LAC    CLOUDY    47  46  97 NW6       29.66F
SHEBOYGAN      CLOUDY    48  45  89 N9        29.66F
WEST BEND      LGT RAIN  48  46  93 N5        29.65F
JUNEAU         CLOUDY    47  46  93 CALM      29.67R
$$

LSZ147-162-040600-
LAKE SUPERIOR

STATION/POSITION TIME  TEMP    WIND        PRES    WAVE
                       AIR SEA DIR/SP/G            HT/PER
                 (UTC) (F)     (DEG/KT/KT) (MB)    (FT/S)
W MID LAKE BUOY  0450   41 37  340/  2/  4 1010.4R   2/ 4
DEVILS ISLAND    0500   46      40/  8/  9 1011.3R
PORT WING        0300   44      40/ 10/ 17   N/A
SAXON HARBOR     0400   43      50/ 14/ 24 1009.8
$$

LMZ867-665-643>646-040600-
LAKE MICHIGAN

STATION/POSITION TIME  TEMP    WIND        PRES    WAVE
                       AIR SEA DIR/SP/G            HT/PER
                 (UTC) (F)     (DEG/KT/KT) (MB)    (FT/S)
CHAMBERS ISLAND  0400   44     330/  6/  8 1005.8S
N MID LAKE BUOY  0450   43 39  310/ 12/ 14 1004.8F   2/ 5
NORTHPORT PIER   0400   44     340/  9/ 11 1005.4
ALGOMA LAKESHORE 0415             CALM       N/A
KEWAUNEE LAKESHO 0400   49     330/  3/  3 1004.3F
SHEBOYGAN LAKESH 0500   45      20/  8/  9 1004.7F
PORT WASHINGTON  0400   53     340/  9/ 16 1005.4R
S MID LAKE BUOY  0450   46 41  190/ 12/ 12 1003.1F   1/ 3
KENOSHA   LAKESH 0500   60     220/ 11/ 15 1002.7F
$$

TC  - TEMPERATURE IN CELSIUS
VSB - VISIBILITY IN STATUTE MILES
WCI - WIND CHILL INDEX
HX  - HEAT INDEX





USA.gov is the U.S. government's official web portal to all federal, state and local government web resources and services.